EW7114 Weather Reports


Display with metric or nautical units.
time (UTC)temp
F
wind
direction
speed
MPH
gust
MPH
rain 1hr
in
rain 24hr
in
rain mn
in
humidity
%
barometer
mb
20260504002517 69 9 6.0 11.0 0.00 0.00 0.00 27 1004.2
20260504002017 70 21 7.0 15.0 0.00 0.00 0.00 25 1004.3
20260504001524 70 317 7.0 15.0 0.00 0.00 0.00 25 1004.3
20260504001015 70 350 5.0 17.0 0.00 0.00 0.00 25 1004.4
20260504000515 71 321 6.0 17.0 0.00 0.00 0.00 24 1004.3
20260504000012 71 5 7.0 13.0 0.00 0.00 0.00 25 1004.3
20260503235510 71 350 6.0 10.0 0.00 0.00 0.00 24 1004.4
20260503235009 71 15 6.0 10.0 0.00 0.00 0.00 25 1004.3
20260503234508 70 355 5.0 10.0 0.00 0.00 0.00 25 1004.4
20260503234007 71 21 5.0 10.0 0.00 0.00 0.00 25 1004.4
20260503233506 71 350 5.0 9.0 0.00 0.00 0.00 24 1004.5
20260503233007 71 350 5.0 8.0 0.00 0.00 0.00 24 1004.5
20260503232502 71 345 4.0 8.0 0.00 0.00 0.00 24 1004.7
20260503232101 71 355 4.0 9.0 0.00 0.00 0.00 24 1004.8
20260503231600 71 19 4.0 9.0 0.00 0.00 0.00 24 1004.7
20260503231100 71 15 4.0 9.0 0.00 0.00 0.00 23 1004.8
20260503230559 71 4 5.0 10.0 0.00 0.00 0.00 24 1004.7
20260503230101 71 350 6.0 12.0 0.00 0.00 0.00 23 1004.7
20260503225553 71 322 8.0 13.0 0.00 0.00 0.00 23 1004.7
20260503225052 72 341 8.0 13.0 0.00 0.00 0.00 24 1004.7
20260503224559 72 5 7.0 13.0 0.00 0.00 0.00 24 1004.7
20260503224050 72 345 9.0 13.0 0.00 0.00 0.00 24 1004.8
20260503223547 72 30 9.0 13.0 0.00 0.00 0.00 23 1004.9
20260503223046 72 355 7.0 15.0 0.00 0.00 0.00 22 1005.0
20260503222544 72 38 8.0 15.0 0.00 0.00 0.00 23 1005.0
20260503222043 72 32 10.0 14.0 0.00 0.00 0.00 23 1005.1
20260503221556 72 30 9.0 14.0 0.00 0.00 0.00 23 1005.1
20260503221044 73 35 8.0 16.0 0.00 0.00 0.00 24 1005.1
20260503220539 73 355 9.0 16.0 0.00 0.00 0.00 24 1005.2
20260503220038 73 359 9.0 15.0 0.00 0.00 0.00 23 1005.4
20260503215536 73 330 8.0 15.0 0.00 0.00 0.00 25 1005.5
20260503215034 72 336 5.0 11.0 0.00 0.00 0.00 23 1005.6
20260503214539 72 332 6.0 17.0 0.00 0.00 0.00 24 1005.8
20260503214031 73 9 9.0 17.0 0.00 0.00 0.00 24 1005.8
20260503213530 73 45 8.0 16.0 0.00 0.00 0.00 25 1005.8
20260503213028 73 350 11.0 16.0 0.00 0.00 0.00 24 1005.8
20260503212526 73 12 9.0 15.0 0.00 0.00 0.00 24 1006.0
20260503212026 72 359 3.0 8.0 0.00 0.00 0.00 22 1006.1
20260503211524 72 236 3.0 8.0 0.00 0.00 0.00 19 1006.3
20260503211023 72 329 2.0 6.0 0.00 0.00 0.00 20 1006.5
20260503210521 72 297 4.0 9.0 0.00 0.00 0.00 20 1006.5
20260503210019 72 321 2.0 12.0 0.00 0.00 0.00 20 1006.5
20260503205518 73 247 8.0 12.0 0.00 0.00 0.00 22 1006.8
20260503205017 73 232 5.0 11.0 0.00 0.00 0.00 21 1006.8
20260503204516 73 191 1.0 10.0 0.00 0.00 0.00 20 1006.8
20260503204013 73 126 6.0 20.0 0.00 0.00 0.00 20 1006.9
20260503203516 73 190 4.0 20.0 0.00 0.00 0.00 20 1006.9
20260503203012 73 184 1.0 6.0 0.00 0.00 0.00 19 1007.1
20260503202511 73 166 3.0 6.0 0.00 0.00 0.00 19 1007.1
20260503202011 73 224 0.0 5.0 0.00 0.00 0.00 20 1007.2
20260503201505 73 215 0.0 7.0 0.00 0.00 0.00 19 1007.4
20260503201004 73 190 4.0 10.0 0.00 0.00 0.00 19 1007.5
20260503200502 73 172 3.0 10.0 0.00 0.00 0.00 19 1007.6
20260503200001 73 165 4.0 9.0 0.00 0.00 0.00 20 1007.8
20260503195600 73 249 4.0 10.0 0.00 0.00 0.00 20 1007.7
20260503195058 73 162 4.0 10.0 0.00 0.00 0.00 20 1007.9
20260503194607 73 163 6.0 11.0 0.00 0.00 0.00 20 1007.9
20260503194056 73 153 5.0 10.0 0.00 0.00 0.00 21 1008.0
20260503193555 73 84 5.0 9.0 0.00 0.00 0.00 21 1008.0
20260503193103 72 196 5.0 11.0 0.00 0.00 0.00 23 1008.1
20260503192550 72 147 5.0 8.0 0.00 0.00 0.00 22 1008.2
20260503192049 72 305 2.0 9.0 0.00 0.00 0.00 20 1008.2
20260503191607 72 95 4.0 10.0 0.00 0.00 0.00 21 1008.4
20260503191047 72 188 1.0 9.0 0.00 0.00 0.00 20 1008.5
20260503190546 72 350 1.0 10.0 0.00 0.00 0.00 21 1008.6
20260503190044 72 180 4.0 15.0 0.00 0.00 0.00 20 1008.7
20260503185542 72 153 9.0 15.0 0.00 0.00 0.00 19 1008.8
20260503185041 73 217 3.0 10.0 0.00 0.00 0.00 21 1008.9
20260503184540 73 350 7.0 11.0 0.00 0.00 0.00 22 1008.9
20260503184041 72 92 6.0 17.0 0.00 0.00 0.00 20 1008.9
20260503183537 73 128 9.0 17.0 0.00 0.00 0.00 22 1009.1
20260503183035 72 150 9.0 13.0 0.00 0.00 0.00 22 1009.2
20260503182535 71 180 7.0 15.0 0.00 0.00 0.00 22 1009.2
20260503182032 71 159 7.0 13.0 0.00 0.00 0.00 23 1009.3
20260503181544 70 173 5.0 10.0 0.00 0.00 0.00 25 1009.3
20260503181029 70 147 7.0 10.0 0.00 0.00 0.00 23 1009.5
20260503180529 70 140 6.0 15.0 0.00 0.00 0.00 24 1009.6
20260503180029 70 170 8.0 17.0 0.00 0.00 0.00 25 1009.6
20260503175525 70 134 10.0 17.0 0.00 0.00 0.00 26 1009.8
20260503175023 70 163 8.0 12.0 0.00 0.00 0.00 25 1009.8
20260503174522 69 176 7.0 11.0 0.00 0.00 0.00 27 1009.9
20260503174020 69 133 5.0 13.0 0.00 0.00 0.00 28 1010.0
20260503173519 68 172 8.0 14.0 0.00 0.00 0.00 28 1010.0
20260503173017 68 143 6.0 13.0 0.00 0.00 0.00 27 1010.1
20260503172515 69 186 8.0 13.0 0.00 0.00 0.00 28 1010.1
20260503172015 69 183 9.0 13.0 0.00 0.00 0.00 27 1010.2
20260503171512 68 160 6.0 11.0 0.00 0.00 0.00 28 1010.2
20260503171011 68 192 6.0 12.0 0.00 0.00 0.00 28 1010.2
20260503170510 68 132 8.0 11.0 0.00 0.00 0.00 28 1010.4
20260503160105 58 157 1.0 5.0 0.00 0.00 0.00 42 1011.2
20260503150534 47 240 0.0 2.0 0.00 0.00 0.00 53 1012.0
20260503131006 32 213 0.0 2.0 0.00 0.00 0.00 1 1012.3
20260503130503 31 213 1.0 4.0 0.00 0.00 0.00 1 1012.3
20260503110528 35 206 0.0 0.0 0.00 0.00 0.00 29 1012.7
20260503081550 39 206 0.0 3.0 0.00 0.00 0.00 39 1012.7
20260503081047 39 206 1.0 3.0 0.00 0.00 0.00 37 1012.7
20260503080549 38 206 0.0 2.0 0.00 0.00 0.00 37 1012.8
20260503080152 38 206 0.0 1.0 0.00 0.00 0.00 39 1012.8
20260503072539 37 206 2.0 4.0 0.00 0.00 0.00 52 1012.9
20260503072041 36 206 3.0 4.0 0.00 0.00 0.00 55 1012.8
20260503071538 37 206 3.0 4.0 0.00 0.00 0.00 56 1012.7
20260503071036 38 206 3.0 4.0 0.00 0.00 0.00 56 1012.7
20260503070534 38 206 2.0 4.0 0.00 0.00 0.00 56 1012.8
20260503055020 42 206 1.0 5.0 0.00 0.00 0.00 55 1012.2
20260503054516 42 195 2.0 5.0 0.00 0.00 0.00 55 1012.2
20260503054014 41 165 2.0 5.0 0.00 0.00 0.00 55 1012.2
20260503053513 40 159 2.0 5.0 0.00 0.00 0.00 55 1012.1
20260503053012 40 163 4.0 5.0 0.00 0.00 0.00 55 1012.0
20260503052509 41 167 3.0 5.0 0.00 0.00 0.00 54 1012.0
20260503052008 42 126 4.0 5.0 0.00 0.00 0.00 52 1011.9
20260503051506 44 167 2.0 6.0 0.00 0.00 0.00 49 1011.8
20260503051005 47 150 3.0 6.0 0.00 0.00 0.00 45 1011.7
20260503050504 50 325 0.0 2.0 0.00 0.00 0.00 43 1011.8
20260503050003 51 325 0.0 3.0 0.00 0.00 0.00 43 1011.7
20260503045601 50 325 2.0 4.0 0.00 0.00 0.00 44 1011.7
20260503045100 50 325 2.0 4.0 0.00 0.00 0.00 43 1011.8
20260503044558 50 325 1.0 3.0 0.00 0.00 0.00 44 1011.8
20260503044057 51 5 0.0 3.0 0.00 0.00 0.00 44 1011.8
20260503043557 51 18 0.0 4.0 0.00 0.00 0.00 44 1011.8
20260503043100 52 315 2.0 5.0 0.00 0.00 0.00 43 1011.9
20260503042558 52 328 2.0 4.0 0.00 0.00 0.00 43 1011.9
20260503042057 52 307 2.0 4.0 0.00 0.00 0.00 43 1011.9
20260503041554 52 303 2.0 4.0 0.00 0.00 0.00 42 1011.9
20260503041057 52 315 2.0 3.0 0.00 0.00 0.00 42 1011.9
20260503040553 52 307 0.0 4.0 0.00 0.00 0.00 44 1012.0
20260503040054 53 307 1.0 4.0 0.00 0.00 0.00 43 1011.9
20260503035548 53 314 2.0 4.0 0.00 0.00 0.00 43 1011.9
20260503035048 53 309 2.0 5.0 0.00 0.00 0.00 43 1011.9
20260503034548 53 309 2.0 5.0 0.00 0.00 0.00 42 1011.8
20260503034044 53 318 2.0 5.0 0.00 0.00 0.00 44 1011.7
20260503033542 53 299 1.0 4.0 0.00 0.00 0.00 44 1011.7
20260503033042 53 316 2.0 4.0 0.00 0.00 0.00 44 1011.7
20260503032540 53 301 2.0 4.0 0.00 0.00 0.00 44 1011.6
20260503032040 53 315 2.0 4.0 0.00 0.00 0.00 44 1011.6
20260503031540 54 307 1.0 5.0 0.00 0.00 0.00 44 1011.5
20260503031039 54 298 1.0 5.0 0.00 0.00 0.00 43 1011.5
20260503030538 54 311 0.0 3.0 0.00 0.00 0.00 44 1011.4
20260503030037 54 328 0.0 4.0 0.00 0.00 0.00 42 1011.4
20260503025536 55 328 1.0 5.0 0.00 0.00 0.00 42 1011.3
20260503025033 55 330 1.0 5.0 0.00 0.00 0.00 42 1011.3
20260503024536 56 359 0.0 3.0 0.00 0.00 0.00 40 1011.3
20260503024031 57 64 1.0 4.0 0.00 0.00 0.00 40 1011.3
20260503023531 58 326 2.0 5.0 0.00 0.00 0.00 39 1011.2
20260503023028 59 323 2.0 5.0 0.00 0.00 0.00 37 1011.2
20260503022526 60 305 2.0 4.0 0.00 0.00 0.00 38 1011.2
20260503022024 61 359 1.0 4.0 0.00 0.00 0.00 35 1011.3
20260503021524 61 350 2.0 6.0 0.00 0.00 0.00 34 1011.3
20260503021022 62 7 2.0 6.0 0.00 0.00 0.00 34 1011.3
20260503020520 63 10 2.0 5.0 0.00 0.00 0.00 32 1011.3
20260503020019 63 345 3.0 5.0 0.00 0.00 0.00 31 1011.3
20260503015521 63 340 3.0 6.0 0.00 0.00 0.00 31 1011.3
20260503015015 64 345 3.0 6.0 0.00 0.00 0.00 31 1011.3
20260503014514 64 345 4.0 11.0 0.00 0.00 0.00 31 1011.3
20260503014012 65 332 6.0 11.0 0.00 0.00 0.00 30 1011.4
20260503013511 65 336 4.0 11.0 0.00 0.00 0.00 30 1011.4
20260503013015 66 335 5.0 12.0 0.00 0.00 0.00 30 1011.3
20260503012508 66 359 7.0 12.0 0.00 0.00 0.00 30 1011.3
20260503012005 66 1 7.0 13.0 0.00 0.00 0.00 31 1011.4
20260503011504 66 1 9.0 14.0 0.00 0.00 0.00 30 1011.3
20260503011004 67 329 8.0 13.0 0.00 0.00 0.00 30 1011.3
20260503010502 67 359 7.0 12.0 0.00 0.00 0.00 28 1011.3
20260503010100 67 359 4.0 11.0 0.00 0.00 0.00 29 1011.3
20260503005559 67 330 8.0 12.0 0.00 0.00 0.00 28 1011.3
20260503005057 67 359 7.0 12.0 0.00 0.00 0.00 28 1011.3
20260503004558 68 9 7.0 13.0 0.00 0.00 0.00 27 1011.3
20260503004055 68 17 10.0 13.0 0.00 0.00 0.00 26 1011.2
20260503003553 69 23 7.0 13.0 0.00 0.00 0.00 26 1011.3
20260503003055 70 345 8.0 13.0 0.00 0.00 0.00 26 1011.2